User: anonymous   Login
Location: Elbart
(49.6135°N, 11.9134°E)
Time: 11:40:51
(UTC+00:00)
Language:

CZ-4C R/B - Orbit

View from above orbital plane
View from above orbital plane
View from above satellite
View from above satellite

Ground track
Ground track

The orbit data is extracted from the following two-line orbital elements,

1 36416U 10009D   20190.58736518 -.00000104 +00000-0 +24888-5 0  9996
2 36416 063.4241 144.1481 0497045 355.2851 004.3593 13.69571228517240
Epoch (UTC): 08 July 2020 14:05:48
Eccentricity: 0.0497045
inclination: 63.4241°
perigee height: 634 km
apogee height: 1368 km
right ascension of ascending node: 144.1481°
argument of perigee: 355.2851°
revolutions per day: 13.69571228
mean anomaly at epoch: 4.3593°
orbit number at epoch: 51724

The dashed part of the orbit path shows where the satellite is in the earth's shadow,  

DLR